This is the latest recevied weather packets stored in our database for station/object N4PWG. If no packets are shown the sender has not sent any weather packets the latest 10 day(s).
| Time | Temp. | Humidity | Pressure | Rain* | Wind** | Luminosity | Snow |
|---|---|---|---|---|---|---|---|
| 1778205100 | 10.56° C | 87% | 1032.8 hPa | 0 mm | - | 0 W/m² | - |
| 1778204796 | 11.11° C | 84% | 1032.8 hPa | 0 mm | - | 0 W/m² | - |
| 1778204492 | 11.11° C | 85% | 1032.8 hPa | 0 mm | - | 0 W/m² | - |
| 1778204188 | 11.11° C | 85% | 1032.8 hPa | 0 mm | - | 0 W/m² | - |
| 1778203886 | 11.11° C | 87% | 1032.9 hPa | 0 mm | - | 0 W/m² | - |
| 1778203583 | 11.11° C | 85% | 1033 hPa | 0 mm | - | 0 W/m² | - |
| 1778203280 | 11.67° C | 85% | 1032.9 hPa | 0 mm | - | 0 W/m² | - |
| 1778202979 | 11.67° C | 84% | 1032.9 hPa | 0 mm | - | 0 W/m² | - |
| 1778202675 | 12.22° C | 82% | 1032.9 hPa | 0 mm | - | 0 W/m² | - |
| 1778202372 | 12.78° C | 84% | 1032.9 hPa | 0 mm | - | 0 W/m² | - |
| 1778202070 | 13.33° C | 80% | 1032.6 hPa | 0 mm | - | 0 W/m² | - |
| 1778201766 | 12.78° C | 77% | 1032.6 hPa | 0 mm | - | 0 W/m² | - |
| 1778201463 | 13.89° C | 81% | 1032.9 hPa | 0 mm | - | 1 W/m² | - |
| 1778201159 | 14.44° C | 75% | 1032.8 hPa | 0 mm | - | 3 W/m² | - |
| 1778200856 | 15.56° C | 74% | 1032.4 hPa | 0 mm | - | 5 W/m² | - |
| 1778200552 | 16.11° C | 64% | 1032.5 hPa | 0 mm | - | 7 W/m² | - |
| 1778200250 | 16.67° C | 66% | 1032.3 hPa | 0 mm | - | 10 W/m² | - |
| 1778199946 | 18.33° C | 67% | 1032.4 hPa | 0 mm | - | 13 W/m² | - |
| 1778199643 | 17.78° C | 59% | 1032.3 hPa | 0 mm | - | 15 W/m² | - |
| 1778199339 | 18.33° C | 62% | 1032.4 hPa | 0 mm | - | 17 W/m² | - |
| 1778199035 | 18.33° C | 56% | 1032.4 hPa | 0 mm | - | 23 W/m² | - |
| 1778198731 | 18.89° C | 52% | 1032.3 hPa | 0 mm | - | 28 W/m² | - |
| 1778198429 | 18.89° C | 48% | 1032.3 hPa | 0 mm | - | 32 W/m² | - |
| 1778198125 | 19.44° C | 47% | 1032.2 hPa | 0 mm | - | 35 W/m² | - |
| 1778197823 | 19.44° C | 49% | 1032.5 hPa | 0 mm | - | 41 W/m² | - |
* Rain latest hour (hover to see other rain measurements)
** Current wind speed in m/s (hover to see current wind gust speed)